Theta_e
320 320 319 316 315 316 314 312 312 312 313 314 314 315 316 316 317 316 318 325 331 336 347 346 344 344 347 348 345 349 355 356 353 353 353 351 352 351 350 350 349 348 347 346 344
318 319 320 321 320 315 315 312 311 312 312 314 314 315 315 316 316 318 319 335 343 344 345 343 349 349 349 348 346 349 353 351 350 348 350 351 351 351 350 349 349 349 349 345 343
320 318 319 320 320 320 315 313 311 311 312 313 314 315 315 316 319 329 322 334 346 346 349 344 346 345 346 347 346 346 349 348 347 349 350 351 352 351 351 351 349 350 350 346 345
322 320 318 319 320 320 316 314 312 311 312 313 314 314 315 317 339 332 327 332 350 349 347 351 345 342 342 346 345 348 346 346 346 348 351 351 351 350 351 351 349 349 349 347 344
323 322 320 318 319 320 318 315 312 312 312 313 314 314 315 317 330 334 329 338 350 348 348 350 350 344 343 342 345 346 346 346 347 347 350 350 351 352 351 350 348 347 349 347 345
323 323 321 319 318 320 317 314 313 313 313 313 314 315 315 326 327 329 329 345 345 347 349 347 349 345 343 344 346 345 346 346 350 349 349 351 352 351 349 348 347 348 349 347 347
324 324 323 321 319 321 315 313 314 313 313 314 314 315 315 322 330 326 330 345 341 344 345 340 342 344 347 346 345 345 346 348 352 351 352 350 354 351 348 348 347 349 349 348 347
324 324 323 322 320 320 315 313 314 313 313 314 314 314 316 320 334 332 330 344 341 346 350 350 349 346 348 346 341 344 347 354 352 351 350 348 357 349 347 346 348 348 347 347 347
324 324 324 323 321 319 321 314 313 313 313 314 314 315 318 327 337 332 331 338 342 342 347 347 349 347 340 341 339 341 345 351 354 350 351 351 357 349 346 343 345 347 346 346 347
324 324 324 324 323 320 320 319 313 313 313 313 315 317 321 330 335 333 331 333 335 332 333 337 347 349 344 345 342 341 341 343 353 351 351 354 355 351 346 344 343 345 344 345 345
324 324 324 324 323 321 319 320 320 322 314 318 318 321 324 331 337 335 329 333 340 342 345 347 350 350 345 345 343 343 341 341 339 348 352 353 356 354 348 345 342 342 343 344 345
322 324 324 324 324 322 320 321 322 326 326 325 322 320 322 330 334 333 331 337 344 347 344 346 348 343 345 342 343 343 342 340 339 347 351 355 356 354 350 348 345 342 342 343 343
319 323 324 324 323 321 321 321 323 324 325 325 326 326 325 323 326 336 332 338 343 346 343 346 343 339 339 339 337 337 338 339 343 351 351 354 358 357 352 351 347 343 342 342 342
315 321 323 324 324 322 321 322 325 324 329 328 328 327 325 325 324 327 333 340 342 345 342 343 339 335 334 333 332 331 332 338 346 351 353 351 353 357 355 354 351 349 343 341 341
312 318 323 324 324 323 327 324 325 324 326 327 327 324 324 324 325 327 337 336 338 340 335 337 334 335 336 335 330 334 335 339 349 350 354 355 355 352 353 356 354 350 348 343 341
312 317 322 324 325 324 325 322 325 329 332 329 324 324 324 323 324 330 334 333 332 336 336 338 336 335 337 332 329 338 343 343 346 350 352 349 355 354 356 354 353 350 349 348 344
316 319 323 324 323 323 322 325 330 332 329 327 327 323 324 325 325 329 332 332 335 335 333 330 330 329 329 330 327 336 342 345 347 352 347 340 354 348 347 349 350 350 349 348 347
324 324 325 325 324 325 325 329 333 329 332 331 323 321 325 323 324 325 332 334 332 333 335 332 333 329 327 330 331 333 332 332 336 339 338 341 349 347 342 340 346 348 349 348 348
326 326 325 325 325 324 325 330 331 330 331 330 322 325 325 323 324 326 327 328 330 332 334 333 331 328 327 328 328 328 330 328 334 337 345 345 344 340 339 342 343 345 348 348 348
327 325 326 325 324 323 328 325 326 326 329 328 332 328 329 325 325 326 328 329 327 330 332 330 331 329 327 328 326 328 328 333 339 343 343 341 344 343 345 344 344 346 345 346 348
325 326 324 325 323 324 330 328 324 324 326 329 331 331 331 330 324 326 328 328 328 327 331 329 330 332 331 332 333 329 331 330 337 339 338 337 336 340 342 344 343 345 347 348 348
325 326 325 323 324 319 326 324 324 328 326 328 328 329 330 329 325 324 328 326 325 327 329 330 331 333 331 329 328 331 332 331 333 336 340 339 337 337 340 337 341 344 345 347 348
326 323 325 328 327 329 328 331 330 334 331 330 329 329 329 330 332 325 325 327 323 326 329 326 332 332 331 330 329 333 327 325 334 339 345 339 333 339 341 342 342 342 343 344 346
329 327 328 326 325 328 332 331 333 330 330 330 331 331 331 334 331 335 334 332 329 326 323 325 327 331 332 335 331 334 329 332 331 336 340 340 336 340 342 342 341 340 340 341 341
323 320 320 330 326 322 325 326 330 330 329 329 333 330 332 336 334 333 333 333 331 328 324 327 331 329 330 328 329 331 332 329 333 332 333 333 337 337 342 342 340 339 340 341 342
317 318 318 317 316 321 318 321 322 322 326 330 328 326 330 332 329 331 329 332 332 332 329 326 334 329 331 327 328 329 330 330 329 327 333 332 333 335 337 340 341 340 343 344 345
311 312 317 313 317 320 316 317 318 318 325 321 320 323 330 319 316 318 320 326 329 331 332 329 329 332 333 328 330 331 331 330 330 329 332 334 333 337 338 340 341 342 345 347 348
Wind_Speed
14 13 12 10 7 4 3 2 4 7 9 11 12 11 9 8 8 9 8 3 9 11 9 10 7 10 11 5 2 2 2 3 3 2 3 14 7 6 6 18 6 2 14 20 29
14 12 11 10 9 6 3 2 2 6 9 11 11 11 9 8 8 10 5 6 9 15 16 14 8 5 4 3 0 2 2 2 1 3 2 14 11 11 8 15 8 14 16 31 32
15 12 10 10 9 8 4 2 2 5 9 11 11 10 8 6 3 1 10 8 11 14 16 12 5 2 3 7 3 0 2 1 1 5 4 13 10 5 15 7 11 21 28 29 30
17 14 10 9 8 7 5 2 2 5 9 10 11 8 8 4 2 1 8 9 12 13 17 12 8 4 4 5 5 4 3 4 2 3 5 11 10 7 3 1 12 22 31 32 30
17 15 12 9 8 7 5 2 3 6 8 10 9 8 7 3 2 4 11 12 13 15 16 13 9 4 2 3 2 3 2 2 6 4 8 10 7 6 3 3 18 24 31 30 29
17 15 13 10 8 8 4 2 4 6 7 8 8 9 5 4 3 9 15 16 13 16 11 9 4 3 3 2 4 5 7 7 3 8 10 10 6 1 6 11 19 27 30 32 27
17 15 13 11 7 7 5 2 4 5 7 8 8 8 4 5 7 17 16 16 14 9 11 2 6 4 4 3 8 4 3 6 7 10 5 14 7 7 9 14 19 21 25 24 24
17 15 13 11 6 5 5 3 4 5 6 7 7 7 4 5 6 15 14 17 19 10 6 2 3 6 3 5 2 2 1 2 3 7 5 4 4 7 12 14 16 19 21 21 24
17 14 13 11 7 2 3 4 4 5 7 6 6 5 6 8 11 15 14 14 18 16 7 7 8 4 3 2 2 0 3 2 4 1 6 1 5 11 13 12 15 19 22 21 21
16 14 12 10 8 1 1 3 5 5 7 6 4 3 3 8 11 13 16 4 10 5 5 6 4 4 3 3 4 5 3 1 3 8 4 4 6 12 14 13 15 19 19 22 24
16 14 12 10 6 2 3 4 2 2 7 3 4 2 9 15 11 12 13 9 4 5 2 1 4 9 8 4 5 5 7 7 3 6 6 5 8 14 15 13 15 19 21 22 24
16 14 12 9 6 4 6 3 2 2 1 7 10 10 5 13 7 15 21 6 1 1 1 3 7 12 5 7 8 8 8 5 3 7 6 6 9 12 16 16 17 21 23 24 22
16 14 11 9 8 6 9 4 3 1 1 2 5 10 9 11 5 19 23 9 4 5 8 8 9 7 4 10 6 4 5 3 3 6 4 9 6 11 12 12 15 18 21 23 26
16 14 9 8 1 3 5 8 4 5 1 3 4 4 10 7 5 15 25 10 5 8 9 9 8 3 2 8 3 5 5 5 9 8 1 4 1 10 12 15 16 20 21 24 27
16 14 8 5 4 3 6 6 2 8 3 4 4 5 8 8 8 8 25 10 9 6 4 4 5 11 13 6 4 4 7 7 9 5 2 5 4 5 12 14 18 21 23 25 26
15 13 9 6 6 6 8 3 6 3 3 5 6 7 6 3 2 8 9 6 3 5 5 14 9 8 6 2 4 13 12 10 5 1 4 1 5 4 8 17 15 21 24 25 25
13 13 8 5 3 9 10 10 2 2 1 6 6 6 7 7 5 5 9 11 7 4 5 5 10 5 6 6 6 4 7 3 2 3 3 1 6 9 8 8 13 21 24 24 24
12 9 6 7 13 10 12 2 2 0 3 1 3 4 9 10 6 5 5 9 6 5 6 4 2 3 5 4 4 12 4 3 2 3 1 3 5 0 2 5 10 19 24 23 24
6 3 4 8 13 15 6 2 3 4 1 1 3 5 5 4 4 6 10 12 10 15 8 3 5 3 3 3 3 6 5 2 6 1 3 1 4 8 7 7 11 16 20 25 27
1 7 4 7 16 18 2 2 2 4 3 2 2 5 8 5 9 8 8 5 10 15 17 2 4 1 2 3 6 3 7 3 2 2 3 2 5 5 3 10 12 14 19 23 25
8 6 12 13 16 6 3 4 4 5 5 2 2 2 4 4 8 8 7 4 9 10 17 8 3 4 7 3 4 4 3 5 3 2 2 3 3 2 4 8 13 11 11 16 20
5 3 7 9 3 1 3 3 2 3 3 3 2 4 4 6 6 6 9 5 8 15 12 10 3 6 6 1 1 1 2 4 4 4 1 2 3 1 4 3 8 11 10 10 14
5 5 8 3 3 2 1 1 1 5 6 5 2 1 1 1 4 5 4 3 10 10 9 10 7 6 4 3 4 4 4 1 4 4 6 4 2 2 4 6 7 12 12 13 13
4 2 5 7 6 2 2 4 3 6 2 5 6 2 1 1 2 2 2 1 2 3 5 13 5 8 8 3 2 3 5 6 3 4 5 6 3 4 8 9 9 11 13 13 15
6 3 2 2 6 7 3 3 4 6 7 12 3 9 4 1 2 5 7 5 5 3 4 7 5 7 4 3 3 2 4 8 7 2 6 2 6 4 13 15 15 16 15 16 16
6 3 4 4 3 2 7 5 6 5 7 5 5 10 9 5 4 3 7 2 2 6 3 2 3 4 2 2 0 4 6 4 5 3 8 2 6 4 5 16 18 18 17 17 16
12 9 3 6 3 1 3 3 6 6 2 8 7 5 3 4 13 17 15 16 6 4 1 1 2 4 6 2 4 6 11 10 5 6 6 8 6 7 8 16 22 20 17 17 20
Wind_Direction
28 28 30 26 16 8 354 280 220 207 200 199 199 206 209 212 222 238 248 223 196 167 164 153 144 177 190 243 199 159 70 42 70 45 12 157 138 127 117 140 143 155 152 162 158
22 20 19 20 16 8 2 334 198 202 194 194 197 202 205 216 240 253 215 191 178 163 148 139 127 113 171 142 103 298 72 40 344 327 259 179 154 139 133 143 120 97 125 150 158
21 16 11 10 7 8 2 6 161 185 185 188 198 197 199 216 274 326 196 177 159 165 169 157 149 70 213 155 142 33 98 157 18 350 213 164 145 135 147 185 174 156 150 157 162
19 15 8 3 4 2 4 38 128 164 177 183 194 187 193 174 91 97 156 164 163 177 178 181 195 22 15 338 350 359 246 247 269 19 106 156 145 108 154 156 179 165 161 159 163
16 15 8 360 2 2 6 73 123 154 169 180 186 182 180 120 51 135 169 172 166 175 189 194 186 181 216 217 200 239 267 240 244 241 116 119 101 115 39 86 153 158 160 161 162
14 11 8 2 0 8 15 102 130 146 161 174 179 183 173 102 127 179 179 177 161 158 171 197 214 292 309 253 232 301 287 300 349 185 143 121 92 92 68 127 143 155 164 164 168
11 9 5 3 0 11 33 102 134 141 157 169 176 183 161 102 134 162 184 183 159 143 174 235 279 239 309 238 250 289 350 118 111 128 119 127 71 79 122 136 144 159 164 167 170
4 6 2 1 360 11 38 88 137 141 155 165 175 176 107 130 167 181 187 188 184 158 127 21 305 268 252 309 287 291 221 133 154 143 145 194 121 135 146 145 154 165 167 176 179
354 359 358 355 359 7 52 81 117 139 141 152 172 174 140 138 167 183 184 202 200 213 231 285 304 253 231 262 198 9 88 105 169 220 156 237 127 156 155 161 162 171 176 184 183
343 345 350 352 355 329 125 102 113 131 134 136 176 192 139 157 143 166 182 188 203 236 243 254 233 221 203 220 357 332 331 162 180 194 172 163 119 157 170 174 175 179 186 187 188
334 334 339 344 340 286 200 150 141 147 192 189 197 108 119 136 166 177 176 204 205 161 168 180 291 279 295 268 294 291 287 283 255 164 179 190 158 172 175 183 184 189 193 195 198
329 324 329 334 320 266 207 212 196 143 257 239 232 226 146 147 129 156 166 196 182 314 357 274 277 293 256 279 269 253 269 288 190 150 186 163 159 177 182 194 199 196 196 198 199
326 317 321 327 312 221 211 175 184 295 238 241 206 220 202 192 168 173 174 202 198 200 224 226 266 322 246 288 266 242 238 184 116 138 72 148 163 187 204 208 204 210 210 201 201
323 311 314 324 197 180 217 200 218 237 219 172 193 198 200 178 188 196 188 183 205 220 234 248 273 270 230 306 270 344 221 160 145 179 235 224 290 205 196 209 212 208 206 208 205
319 304 298 272 260 248 177 168 237 158 131 153 143 177 174 177 142 174 189 200 214 196 202 266 285 296 297 288 199 357 129 132 141 143 269 200 265 120 190 212 215 212 210 209 206
313 295 284 263 242 198 180 215 142 226 140 166 148 165 160 177 149 125 170 202 223 230 249 266 265 269 248 196 222 138 107 98 113 200 258 81 242 196 182 218 208 206 209 210 208
307 287 261 230 185 177 176 149 222 230 23 165 186 173 191 170 159 181 169 183 206 210 256 278 233 211 185 184 133 173 186 123 135 214 278 53 220 271 191 200 197 193 200 204 207
307 275 244 208 182 145 146 159 241 287 233 124 137 118 195 171 189 160 163 218 190 196 280 300 217 207 163 252 174 186 257 217 194 224 22 145 231 234 77 214 171 183 188 193 202
306 239 193 187 186 186 168 181 234 202 221 204 126 160 212 217 220 177 203 233 228 189 212 231 248 251 142 227 199 168 208 65 110 100 262 320 269 242 229 162 156 162 175 189 198
217 146 72 179 173 163 160 231 252 228 272 210 169 204 195 198 189 192 190 212 220 200 205 176 292 351 33 152 66 259 130 168 177 178 251 224 282 270 163 188 188 186 196 198 200
123 103 58 121 150 173 181 212 261 259 253 236 184 189 220 205 211 194 206 218 205 191 200 181 216 259 305 243 169 151 213 68 101 309 250 274 247 198 262 206 199 192 194 192 195
88 83 76 133 106 2 149 191 322 328 16 294 264 235 225 181 197 223 227 252 164 142 178 202 219 249 264 228 276 180 266 193 232 193 277 307 265 47 299 206 185 164 166 172 180
79 95 33 51 133 135 106 72 335 360 11 355 314 297 350 184 209 214 208 347 160 164 167 173 222 252 254 152 182 205 169 169 121 145 188 213 236 61 130 138 156 167 166 162 169
99 107 41 56 55 38 75 16 352 1 108 5 357 3 356 135 7 130 68 93 326 189 199 172 176 215 230 221 117 193 177 167 272 204 159 236 270 185 183 173 172 171 168 163 172
56 73 54 34 43 55 50 12 10 11 2 20 43 23 307 3 46 30 6 354 67 64 124 207 236 203 238 230 211 185 202 193 202 257 247 351 229 199 201 182 173 159 157 158 165
70 46 60 52 355 48 17 34 25 350 353 29 35 339 19 68 34 326 352 334 28 338 68 115 280 183 200 80 157 260 234 235 217 201 248 269 274 218 159 165 168 171 167 159 165
45 49 58 10 25 49 35 5 13 337 156 57 348 330 10 5 300 274 257 264 280 325 332 289 198 227 209 161 136 256 235 215 207 206 224 210 243 166 167 180 177 173 172 160 157